www.pogodaiklimat.ru

Погода и климат >> Архив погоды >> Россия >> Якутия >> Крест-Хальджай


ПОГОДА в Крест-Хальджае

  • Прогноз погоды в Крест-Хальджае
  • Монитор погоды в Крест-Хальджае
  • Климат города

АРХИВ ПОГОДЫ в Крест-Хальджае

Время (UTC), дата Ветер
(напр.,м/с)
 
Видим.   Явления Облачность Т
(С)
Тd
(С)
f
(%)
Тe
(С)
Тes
(С)
Комфортность P
(гПа)
Po
(гПа)
Тmin
(С)
Tmax
(С)
R
(мм)
R24
(мм)
S
(см)
03 16.09 С 1 50 км ясно +15.7 +1.4 38 +17 +22 1002.2 988.8
06 16.09 С 1 50 км ясно +18.0 -1.0 28 +19 +22 1001.0 987.7
09 16.09 С 1 50 км ясно +15.4 -2.8 28 +16 +16 1001.4 987.9 +18.3
12 16.09 СЗ 1 50 км ясно +7.2 -2.3 51 +7 +7 1002.1 988.2
15 16.09 З 1 50 км ясно +4.9 -1.0 66 +4 +4 1002.3 988.3
18 16.09 З 2 50 км ясно +4.1 -0.2 74 +2 +2 1002.4 988.4
21 16.09 СЗ 1 50 км ясно +3.2 -1.2 73 +2 +2 1002.8 988.7 +3.2
00 17.09 СЗ 2 50 км ясно +8.4 +0.4 57 +7 +9 1003.1 989.3
03 17.09 С 2 50 км ясно +13.7 -1.3 35 +13 +18 1002.2 988.7
06 17.09 З 2 50 км ясно +16.7 -3.2 25 +17 +20 1002.0 988.6
09 17.09 С 1 50 км ясно +15.0 -4.5 26 +16 +16 1002.5 989.0 +16.8
12 17.09 С 1 50 км ясно +5.1 -5.0 48 +5 +5 1004.4 990.4
15 17.09 З 1 50 км ясно +3.6 +1.0 83 +2 +2 1005.0 990.9
18 17.09 Ю 1 50 км ясно +0.7 -0.4 92 -1 -1 1006.0 991.8
21 17.09 штиль 0 50 км ясно +0.3 -0.3 96 -1 -1 1007.0 992.8 +0.3
00 18.09 штиль 0 50 км ясно +4.9 +2.2 83 +4 +7 1007.1 993.0
03 18.09 Ю 1 50 км 8/0
[Ci fib]
+10.4 -2.0 42 +11 +15 1007.3 993.5
06 18.09 Ю 2 50 км 10/0
[Ci fib]
+12.5 -2.6 35 +12 +14 1007.2 993.5
09 18.09 Ю 2 50 км 10/0
[Ac trans Ci fib]
+10.4 -2.4 41 +10 +10 1007.5 993.7 +12.6
12 18.09 штиль 0 50 км 10/0
[Ci fib]
+5.5 +3.1 85 +5 +5 1008.1 994.0
15 18.09 штиль 0 50 км 10/0
[Ci fib]
+3.0 +0.1 81 +2 +2 1008.2 994.0
18 18.09 штиль 0 50 км ясно -0.6 -1.1 96 -2 -2 1008.0 994.2
21 18.09 штиль 0 50 км ясно +0.7 -0.4 92 -1 -1 1008.5 994.2 +0.7
00 19.09 штиль 0 50 км ясно +4.6 +1.0 77 +4 +7 1008.6 994.5
03 19.09 штиль 0 50 км ясно +10.0 -0.6 48 +10 +16 1008.3 994.5
06 19.09 ЮЗ 2 50 км ясно +13.1 -2.3 34 +13 +15 1007.7 994.0
09 19.09 З 2 50 км ясно +12.9 -1.6 37 +13 +13 1007.7 994.0 +12.6
12 19.09 З 3 50 км ясно +8.3 -3.1 44 +6 +6 1007.9 994.0
15 19.09 штиль 0 50 км ясно +3.6 -1.4 70 +3 +3 1008.1 994.2
18 19.09 штиль 0 50 км ясно +2.7 -0.4 80 +2 +2 1008.0 994.2
21 19.09 штиль 0 50 км ясно +1.9 -0.6 83 +1 +1 1010.2 996.0 +1.9
00 20.09 З 1 50 км ясно +5.2 0.0 69 +4 +7 1011.4 997.2
03 20.09 ЮЗ 2 50 км ясно +9.8 +0.1 51 +9 +13 1011.0 997.1
06 20.09 З 2 50 км ясно +11.9 -2.1 38 +11 +14 1011.3 997.5
09 20.09 З 1 50 км 3/0
[Ac trans Ci fib]
+11.2 -1.5 41 +11 +11 1011.9 998.0 +12.5
12 20.09 штиль 0 50 км 5/0
[Ac trans Ci fib]
+5.8 +1.3 73 +5 +5 1013.1 999.0
15 20.09 ЮЗ 1 50 км 4/0
[Ac trans Ci fib]
+3.7 +2.5 92 +2 +2 1013.4 999.2
18 20.09 СВ 1 50 км 3/0
[Ac trans Ci fib]
-1.3 -2.2 94 -4 -4 1014.3 999.8
21 20.09 штиль 0 50 км ясно -1.1 -1.7 96 -2 -2 1014.6 1000.1 -2.8
00 21.09 штиль 0 50 км ясно +1.6 -0.9 83 +1 +3 1014.8 1000.5
03 21.09 ЮВ 2 50 км ясно +8.5 -1.4 50 +7 +11 1014.5 1000.5
06 21.09 Ю 2 50 км ясно +12.4 -2.0 37 +12 +14 1014.8 1001.0
09 21.09 штиль 0 50 км ясно +10.5 -2.6 40 +10 +10 1014.9 1001.0 +12.5
12 21.09 штиль 0 50 км ясно +5.2 -1.6 61 +5 +5 1015.4 1001.2
15 21.09 штиль 0 50 км ясно +2.8 +0.3 84 +2 +2 1015.0 1002.0
18 21.09 штиль 0 50 км ясно +1.8 -0.4 85 +1 +1 1015.3 1002.0
21 21.09 штиль 0 50 км ясно +1.4 -1.8 79 0 0 1017.3 1003.0 +1.4
00 22.09 ЮЗ 2 50 км ясно +1.8 -2.3 74 -1 +1 1018.1 1003.8
03 22.09 ЮЗ 1 50 км ясно +5.8 -1.2 61 +5 +10 1017.8 1003.7
06 22.09 З 3 50 км 10/0
[Cs]
+9.2 -3.6 40 +7 +9 1016.8 1002.8
09 22.09 З 4 50 км 10/0
[As op]
+8.5 -3.2 44 +6 +6 1016.4 1002.4 +9.3
12 22.09 Ю 2 50 км 10/0
[As op]
+7.6 +0.3 60 +6 +6 1015.6 1001.6
15 22.09 Ю 2 50 км 10/0
[As op]
+7.4 -1.3 54 +6 +6 1014.1 1000.0
18 22.09 ЮВ 2 50 км 10/0
[As op]
+6.6 -0.7 60 +5 +5 1013.1 999.0

 

Местоположение метеостанции Крест-Хальджай (Якутия, Россия): широта 62.82 долгота 134.40 высота над уровнем моря 115 м.

В архиве по умолчанию представлена погода в Крест-Хальджае за последнюю неделю. Архивные данные за месяц целиком и за предыдущие месяцы, начиная с января 2011 года, Вы можете получить, выбрав интересующий диапазон дат из раскрывающегося списка и нажав кнопку "Ввод!".


*Определитесь, кто Вы:
робот инопланетянин человек

Внимание! Время в таблицах - всемирное. Для получения местного времени необходимо прибавить поправку, которая в Крест-Хальджае равна 9 ч.

Смотрите также архив погоды в соседних городах и на ближайших метеорологических станциях:

Погода в Ытык-Кюёле (Якутия, Россия) (68 км)
Погода в Охотском Перевозе (Якутия, Россия) (120 км)
Погода в Теплом Ключе (Якутия, Россия) (122 км)
Погода в Чурапче (Якутия, Россия) (128 км)
Погода в Верхоянском Перевозе (Якутия, Россия) (133 км)
Погода в Томпо (Якутия, Россия) (144 км)
Погода в Сеген-Кюели (Якутия, Россия) (243 км)
Погода в Намцах (Якутия, Россия) (244 км)
Погода в Амге (Якутия, Россия) (251 км)
Погода в Батамае (Якутия, Россия) (263 км)

Пояснения к столбцам:

Ветер - указаны скорость ветра в м/с - средняя за 10 мин, порывы в срок и между сроками (в фигурных скобках) и направление, откуда дует ветер: С - северный, СВ - северо-восточный, В - восточный, ЮВ - юго-восточный, Ю - южный, ЮЗ - юго-западный, З - западный, СЗ - северо-западный.
Видимость - горизонтальная дальность видимости в метрах или километрах. При видимости от 1 до 10 км при отсутствии осадков обычно наблюдается дымка, при ухудшении видимости до 1 км и менее - туман. В сухую погоду видимость может ухудшаться дымом, пылью или мглою.
Явления - указаны атмосферные явления, наблюдавшиеся в срок или в последний час перед сроком; фигурными скобками обозначены явления, наблюдавшиеся между сроками (за 1-3 часа до срока); квадратными скобками обозначены град или гололедные отложения с указанием их диаметра в мм.
Облачность - указаны через наклонную черту общая и нижняя облачность в баллах и высота нижней границы облаков в метрах; квадратными скобками обозначены формы облаков: Ci - перистые, Cs - перисто-слоистые, Cc - перисто-кучевые, Ac - высококучевые, As - высокослоистые, Sc - слоисто-кучевые, Ns - слоисто-дождевые, Cu - кучевые, Cb - кучево-дождевые. Подробнее классификацию облаков см. в Атласе облаков (PDF).
T - Температура воздуха - температура, измеренная на высоте 2 м над землей.
Td - Температура точки росы - температура, при понижении до которой содержащийся в воздухе водяной пар достигнет насыщения.
f - Относительная влажность воздуха - влажноcть воздуха, измеренная на высоте 2 м над землей.
Te - Эффективная температура - температура, которую ощущает одетый по сезону человек в тени. Характеристика душности погоды. При расчете учитывается влияние влажности воздуха и скорости ветра на теплоощущения человека.
Tes - Эффективная температура на солнце - температура, которую ощущает человек, с поправкой на солнечный нагрев. Характеристика знойности погоды. Зависит от высоты солнца над горизонтом, облачности и скорости ветра. Ночью, в пасмурную погоду, а также при ветре 12 м/с и более поправка равна нулю.
P - Атмосферное давление - приведенное к уровню моря атмосферное давление.
Po - Атмосферное давление - измеренное на уровне метеостанции атмосферное давление.
Tmin - Минимальная температура - минимум температуры воздуха на высоте 2 м над землей.
Tmax - Максимальная температура - максимум температуры воздуха на высоте 2 м над землей.
R - Количество осадков - Количество выпавших осадков за период времени, мм. При наведении курсора мыши на число - период времени, за который выпало указанное количество осадков.
R24 - Количество осадков - Количество выпавших осадков за 24 часа, мм.
S - Снежный покров - Высота снежного покрова, см. При наведении курсора мыши на число - состояние снежного покрова и степень покрытия местности в баллах.